リニア彗星

256P/LINEAR (2013)

English version
Home page
Updated on February 8, 2021

---------------------------------------------------------------------

・ プロフィール

符号 256P/2012 B2
検出日 2012年1月26日
検出光度 19.8等
検出者 関勉、下元繁男、佐藤裕久(芸西)

・ 写真集

・ 軌道要素

Epoch 2013 Mar. 9.0 TT = JDT 2456360.5
T 2013 Mar. 17.40567 TT                                 MPC
q   2.6899316            (2000.0)            P               Q
n   0.09899144     Peri.  124.12026     -0.80868360     +0.36826488
a   4.6281167      Node    81.44586     -0.56158539     -0.71541472
e   0.4187848      Incl.   27.63691     +0.17507906     -0.59376995
P   9.96
From 139 observations 2003 Jan. 27-2013 June 12, mean residual 0".7.

・ 光度変化

        m1 = 12.8 + 5 logΔ + 10.0 log r

---------------------------------------------------------------------

軌道要素はM.P.E.C. 2013-M31に掲載されたものです。
光度グラフはComet for Windowsで作成したものです。

---------------------------------------------------------------------

Copyright(C) Seiichi Yoshida (comet@aerith.net). All rights reserved.